TimeEDT,TemperatureF,Dew PointF,Humidity,Sea Level PressureIn,VisibilityMPH,Wind Direction,Wind SpeedMPH,Gust SpeedMPH,PrecipitationIn,Events,Conditions,WindDirDegrees,DateUTC
12:54 AM,55.9,54.0,93,29.75,10.0,NNE,3.5,-,0.00,Rain,Light Rain,30,2013-06-12 04:54:00
1:54 AM,55.0,54.0,96,29.73,9.0,NE,3.5,-,0.02,Rain,Light Rain,50,2013-06-12 05:54:00
2:54 AM,55.0,53.1,93,29.71,8.0,NNE,5.8,-,0.03,Rain,Light Rain,20,2013-06-12 06:54:00
3:54 AM,54.0,52.0,93,29.70,6.0,NE,6.9,-,0.09,Rain,Rain,40,2013-06-12 07:54:00
4:54 AM,54.0,51.1,90,29.70,7.0,NE,9.2,-,0.07,Rain,Light Rain,40,2013-06-12 08:54:00
5:54 AM,54.0,52.0,93,29.70,9.0,NNE,8.1,-,0.05,Rain,Light Rain,30,2013-06-12 09:54:00
6:54 AM,55.0,52.0,89,29.71,6.0,NNE,10.4,-,0.04,Rain,Light Rain,20,2013-06-12 10:54:00
7:54 AM,55.0,53.1,93,29.72,6.0,NNE,6.9,-,0.04,Rain,Light Rain,30,2013-06-12 11:54:00
8:54 AM,55.9,54.0,93,29.73,6.0,NNE,8.1,-,0.04,Rain,Light Rain,20,2013-06-12 12:54:00
9:39 AM,57.2,55.4,94,29.71,9.0,North,9.2,-,0.03,Rain,Light Rain,10,2013-06-12 13:39:00
9:54 AM,57.0,55.0,93,29.73,9.0,North,6.9,-,0.03,Rain,Light Rain,10,2013-06-12 13:54:00
10:11 AM,57.2,55.4,94,29.71,10.0,North,9.2,-,0.00,Rain,Light Rain,10,2013-06-12 14:11:00
10:54 AM,59.0,55.9,90,29.72,10.0,NNE,10.4,-,0.01,Rain,Light Rain,20,2013-06-12 14:54:00
11:18 AM,60.8,55.4,82,29.71,10.0,North,10.4,19.6,0.00,Rain,Light Rain,10,2013-06-12 15:18:00
11:54 AM,60.1,54.0,80,29.73,10.0,NNE,15.0,24.2,0.00,Rain,Light Rain,20,2013-06-12 15:54:00
12:54 PM,63.0,52.0,67,29.72,10.0,NNE,10.4,17.3,0.00,,Overcast,20,2013-06-12 16:54:00
1:54 PM,64.9,52.0,63,29.72,10.0,NNE,6.9,-,N/A,,Mostly Cloudy,30,2013-06-12 17:54:00
2:54 PM,64.9,46.9,52,29.72,10.0,NE,8.1,-,N/A,,Overcast,40,2013-06-12 18:54:00
3:54 PM,66.0,45.0,47,29.72,10.0,NE,6.9,-,N/A,,Scattered Clouds,40,2013-06-12 19:54:00
4:54 PM,66.0,41.0,40,29.73,10.0,NE,10.4,21.9,N/A,,Partly Cloudy,40,2013-06-12 20:54:00
5:54 PM,66.0,43.0,43,29.73,10.0,NE,5.8,-,N/A,,Clear,50,2013-06-12 21:54:00
6:54 PM,64.0,43.0,46,29.74,10.0,NE,8.1,-,N/A,,Clear,50,2013-06-12 22:54:00
7:54 PM,61.0,41.0,48,29.76,10.0,North,8.1,-,N/A,,Clear,10,2013-06-12 23:54:00
8:19 PM,60.8,41.0,48,29.75,2.5,NNE,8.1,-,N/A,,Haze,20,2013-06-13 00:19:00
8:27 PM,60.8,39.2,45,29.76,10.0,NNE,8.1,-,N/A,,Clear,20,2013-06-13 00:27:00
8:54 PM,59.0,39.0,48,29.78,10.0,NNE,8.1,-,N/A,,Clear,20,2013-06-13 00:54:00
9:54 PM,57.0,37.9,49,29.78,10.0,NNE,8.1,-,N/A,,Clear,20,2013-06-13 01:54:00
10:54 PM,55.0,37.0,51,29.78,10.0,NNE,6.9,-,N/A,,Clear,20,2013-06-13 02:54:00
11:54 PM,52.0,36.0,54,29.78,10.0,North,6.9,-,N/A,,Clear,10,2013-06-13 03:54:00